SAUDICOMSAT 7

Last updated on Fri Dec 29 2023 00:03:02 GMT+0000 (Coordinated Universal Time)

1 31119U 07012C 23361.80813291 .00001184 00000+0 23354-3 0 9995 2 31119 98.2556 310.0629 0059206 142.4373 218.0988 14.63266677890325
UTC large
Height (km)
Speed (km/s)
/
Latitude / Longitude
Inclination (degrees)
Orbital Period (minutes)
Azimuth
Elevation
Range (km)
Doppler Factor

Next 0 passes for location: London (51.5072 / 0.1276)

Sorry there are no passes over London.
SAUDICOMSAT 7